Nome, AK

5:50 PM AKDT on May 24, 2017 (GMT -0800)
Nome

Weather History for PAOM - August, 2014

Change the Weather History Date:

Monday, August 4, 2014

  Actual Average Record
Temperature  
Mean Temperature 60 °F 51 °F  
Max Temperature 69 °F 57 °F 74 °F (2002)
Min Temperature 50 °F 46 °F 29 °F (1922)
Degree Days  
Heating Degree Days 5 14  
Month to date heating degree days 29 56  
Since 1 June heating degree days 1020 972  
Since 1 July heating degree days 452 456  
Cooling Degree Days 0    
Month to date cooling degree days 0  
Year to date cooling degree days 2  
Since 1 June cooling degree days 2  
Growing Degree Days 10 (Base 50)    
Moisture  
Dew Point 54 °F    
Average Humidity 0    
Maximum Humidity 0    
Minimum Humidity 0    
Precipitation  
Precipitation 0.00 in 0.11 in 1.13 in (1968)
Month to date precipitation T 0.42  
Year to date precipitation 7.31 7.65  
Snow  
Snow 0.00 in 0.00 in 0.00 in (2016)
Month to date snowfall 0.0 0.0  
Since 1 June snowfall 0.0 0.3  
Since 1 July snowfall 0.0 0.0  
Snow Depth 0.00 in    
Sea Level Pressure  
Sea Level Pressure 29.79 in    
Wind  
Wind Speed 7 mph (WSW)    
Max Wind Speed 17 mph    
Max Gust Speed 20 mph    
Visibility 10 miles    
Events      
T = Trace of Precipitation, MM = Missing Value Source: NWS Daily Summary

Daily Weather History Graph

Daily Weather History Graph

Search for Another Location

Airport or City:

Trip Planner

Search our weather history database for the weather conditions in past years. The results will help you decide how hot, cold, wet, or windy it might be!

Date:

Astronomy

Aug. 04, 2014 Rise Set
Actual Time 6:15 AM AKDT 11:57 PM AKDT
Civil Twilight 4:50 AM AKDT 1:20 AM AKDT
Nautical Twilight Sun does not set Sun does not set
Astronomical Twilight Sun does not set Sun does not set
Moon 6:17 PM AKDT (8/4) 12:52 AM AKDT (8/4)
Length of Visible Light 20h 30m
Length of Day
17h 41m
First Quarter, 59% of the Moon is Illuminated
Aug 4
First Quarter
Aug 10
Full
Aug 17
Last Quarter
Aug 25
New
Sep 2
First Quarter

Hourly Weather History & Observations

Time (AKDT) Temp. Dew Point Humidity Pressure Visibility Wind Dir Wind Speed Gust Speed Precip Events Conditions
12:53 AM 59.0 °F 55.9 °F 90% 29.83 in 10.0 mi Calm Calm - N/A   Mostly Cloudy
1:53 AM 57.0 °F 55.0 °F 93% 29.83 in 10.0 mi Calm Calm - N/A   Mostly Cloudy
2:53 AM 55.0 °F 53.1 °F 93% 29.83 in 10.0 mi Calm Calm - N/A   Mostly Cloudy
3:53 AM 55.0 °F 53.1 °F 93% 29.83 in 10.0 mi Calm Calm - N/A   Scattered Clouds
4:53 AM 53.1 °F 52.0 °F 96% 29.82 in 10.0 mi Calm Calm - N/A   Scattered Clouds
5:53 AM 52.0 °F 50.0 °F 93% 29.82 in 10.0 mi Calm Calm - N/A   Scattered Clouds
6:53 AM 52.0 °F 50.0 °F 93% 29.81 in 10.0 mi Calm Calm - N/A   Scattered Clouds
7:53 AM 57.0 °F 51.1 °F 81% 29.79 in 10.0 mi North 5.8 mph - N/A   Scattered Clouds
8:53 AM 62.1 °F 55.0 °F 78% 29.79 in 10.0 mi Calm Calm - N/A   Partly Cloudy
9:53 AM 68.0 °F 53.1 °F 59% 29.79 in 10.0 mi NE 4.6 mph - N/A   Partly Cloudy
10:53 AM 66.9 °F 54.0 °F 63% 29.80 in 10.0 mi SSW 4.6 mph - N/A   Partly Cloudy
11:53 AM 68.0 °F 52.0 °F 56% 29.79 in 10.0 mi SW 8.1 mph - N/A   Partly Cloudy
12:53 PM 66.9 °F 52.0 °F 59% 29.79 in 10.0 mi SW 10.4 mph - N/A   Scattered Clouds
1:53 PM 66.9 °F 53.1 °F 61% 29.78 in 10.0 mi West 12.7 mph - N/A   Scattered Clouds
2:53 PM 64.9 °F 53.1 °F 65% 29.79 in 10.0 mi SW 11.5 mph - N/A   Scattered Clouds
3:53 PM 64.0 °F 54.0 °F 70% 29.78 in 10.0 mi SSW 9.2 mph - N/A   Scattered Clouds
4:53 PM 68.0 °F 53.1 °F 59% 29.77 in 10.0 mi WSW 15.0 mph - N/A   Scattered Clouds
5:53 PM 66.0 °F 54.0 °F 65% 29.77 in 10.0 mi WSW 16.1 mph - N/A   Partly Cloudy
6:53 PM 64.0 °F 55.9 °F 75% 29.76 in 10.0 mi WSW 13.8 mph - N/A   Partly Cloudy
7:53 PM 64.9 °F 55.9 °F 73% 29.75 in 10.0 mi WSW 11.5 mph - N/A   Partly Cloudy
8:53 PM 63.0 °F 57.0 °F 81% 29.75 in 10.0 mi SW 9.2 mph - N/A   Partly Cloudy
9:53 PM 64.0 °F 57.0 °F 78% 29.75 in 10.0 mi Calm Calm - N/A   Partly Cloudy
10:53 PM 66.0 °F 55.9 °F 70% 29.74 in 10.0 mi North 9.2 mph - N/A   Partly Cloudy
11:53 PM 64.9 °F 48.9 °F 56% 29.74 in 10.0 mi North 8.1 mph - N/A   Partly Cloudy